Temp
48 48 48 48 50 51 51 53 53 51 52 53 53 53 53 52 52 52 52 52 53 55 56 57 58 60 61
45 45 46 48 51 50 50 51 52 49 51 52 53 52 51 51 50 50 50 50 52 53 54 55 58 61 63
44 44 44 45 45 45 46 47 46 46 49 51 51 51 50 50 49 48 48 49 51 51 52 53 56 59 61
44 43 44 43 45 45 43 44 46 46 47 48 48 48 49 48 46 46 47 49 50 51 51 51 53 57 59
42 41 41 40 43 44 45 44 44 45 45 46 48 47 47 45 45 46 47 48 49 50 51 52 54 55 57
40 42 42 44 43 43 41 40 41 43 43 43 45 43 44 45 45 46 47 48 49 49 49 50 53 53 54
42 42 44 44 42 39 41 41 42 42 43 42 42 42 42 43 43 45 46 47 48 48 48 49 52 53 52
44 44 44 44 45 44 42 41 41 41 42 40 40 41 41 42 40 43 45 47 47 47 47 47 49 51 51
43 44 45 45 44 41 38 38 37 38 38 40 38 38 38 39 40 40 42 45 46 47 47 47 46 49 50
40 43 45 45 44 44 40 37 37 36 39 38 36 37 36 37 37 39 40 41 42 44 46 46 45 45 44
37 37 38 39 39 39 39 37 36 36 38 37 34 34 34 35 35 36 37 39 41 41 42 46 45 43 41
34 35 35 35 35 35 36 36 36 36 39 35 33 35 33 33 35 35 36 37 37 37 39 42 43 45 45
33 33 34 35 33 32 32 33 32 33 33 32 34 31 33 33 33 34 34 35 35 37 39 39 39 42 42
33 33 32 31 31 32 30 30 30 30 30 31 31 31 31 32 32 33 33 33 33 35 37 37 40 42 42
32 32 31 31 30 29 29 28 30 29 28 29 31 32 31 31 29 31 33 34 33 33 34 34 37 40 41
32 32 31 30 29 28 29 29 29 28 28 27 27 28 29 31 32 32 32 33 32 32 34 34 35 38 39
32 31 31 30 31 28 28 28 27 27 27 27 26 29 29 30 32 34 32 31 31 32 34 35 35 36 39
MSLP
1019.29 1019.47 1019.85 1020.31 1020.74 1020.60 1020.59 1020.83 1021.16 1021.04 1021.10 1021.19 1021.35 1021.50 1021.71 1021.70 1021.58 1021.41 1021.08 1020.57 1020.23 1019.40 1018.45 1017.47 1016.21 1015.37 1014.93
1019.10 1018.95 1019.42 1019.82 1019.92 1020.15 1020.57 1020.79 1021.03 1021.13 1021.31 1020.91 1021.18 1021.45 1021.43 1021.35 1021.52 1021.49 1021.22 1020.73 1020.03 1019.30 1018.38 1017.12 1015.82 1014.90 1014.26
1018.04 1018.67 1019.20 1019.61 1020.07 1020.39 1020.82 1021.02 1021.26 1021.03 1020.95 1020.97 1020.94 1021.34 1021.19 1021.46 1021.50 1021.01 1020.89 1020.49 1019.83 1019.10 1018.12 1017.18 1016.02 1014.81 1014.05
1017.66 1018.08 1018.65 1019.23 1019.95 1020.17 1020.76 1020.92 1020.90 1020.87 1020.85 1020.87 1020.90 1020.88 1021.11 1021.26 1021.24 1021.04 1020.52 1020.28 1019.77 1019.01 1018.17 1017.42 1016.68 1015.40 1013.93
1017.43 1018.05 1018.45 1019.18 1019.49 1019.60 1020.19 1020.58 1020.73 1020.87 1020.92 1021.00 1020.89 1020.69 1020.94 1021.45 1021.32 1020.82 1020.24 1020.10 1019.69 1019.13 1018.62 1017.66 1016.98 1016.55 1015.39
1016.77 1017.36 1018.21 1018.70 1019.16 1019.19 1019.77 1020.37 1020.61 1020.90 1020.91 1020.76 1020.86 1020.93 1021.11 1021.15 1020.98 1020.93 1020.32 1019.92 1019.65 1019.43 1018.76 1018.04 1017.26 1017.21 1016.93
1015.77 1016.65 1017.35 1017.95 1018.41 1019.02 1019.42 1019.80 1019.99 1020.58 1020.53 1020.49 1020.92 1020.89 1021.15 1020.98 1020.86 1020.89 1020.42 1020.25 1019.68 1019.45 1019.00 1018.53 1017.95 1017.62 1017.46
1015.27 1016.21 1016.72 1017.27 1017.82 1017.61 1018.67 1019.51 1020.05 1020.32 1020.23 1020.35 1020.65 1021.10 1021.18 1020.88 1020.95 1020.66 1020.61 1020.33 1020.33 1019.77 1019.28 1018.82 1018.36 1018.14 1018.05
1015.58 1015.85 1016.67 1016.63 1017.35 1017.86 1018.58 1019.22 1019.76 1019.90 1020.18 1020.27 1020.65 1020.70 1021.07 1021.04 1021.08 1020.94 1020.88 1020.40 1020.43 1020.11 1019.95 1019.52 1019.10 1018.79 1018.78
1016.11 1016.37 1016.69 1016.92 1017.25 1017.51 1017.89 1018.61 1018.90 1019.42 1019.73 1020.19 1020.60 1020.73 1020.84 1020.92 1021.04 1020.95 1020.97 1021.04 1020.97 1020.52 1020.22 1020.01 1019.76 1019.40 1019.66
1016.67 1016.76 1017.18 1017.06 1017.22 1017.54 1017.70 1018.15 1018.44 1018.89 1019.27 1019.68 1020.23 1020.62 1020.46 1020.87 1021.05 1021.05 1021.04 1021.16 1021.01 1020.94 1020.85 1020.28 1020.29 1020.19 1020.41
1016.61 1016.71 1017.47 1017.93 1017.80 1017.77 1017.95 1018.19 1018.38 1018.52 1018.94 1019.42 1019.75 1020.13 1020.25 1020.80 1021.22 1021.33 1021.20 1021.20 1021.40 1021.54 1021.27 1021.01 1020.79 1020.92 1020.78
1015.82 1016.01 1016.78 1017.69 1018.25 1018.40 1018.51 1018.78 1019.12 1019.38 1019.29 1019.41 1019.56 1020.25 1020.38 1020.79 1020.76 1021.27 1021.28 1021.43 1021.56 1021.78 1021.76 1021.39 1021.09 1021.44 1021.29
1015.14 1016.04 1016.93 1017.55 1018.00 1018.42 1018.51 1018.82 1019.21 1019.62 1019.73 1019.70 1019.90 1020.28 1020.36 1020.87 1021.07 1021.17 1021.23 1021.55 1021.69 1021.58 1021.61 1021.76 1021.60 1021.67 1021.57
1015.03 1015.22 1016.16 1017.06 1017.78 1018.21 1018.02 1018.57 1018.70 1019.22 1019.85 1020.13 1019.89 1020.37 1020.65 1020.69 1020.93 1021.10 1021.25 1021.46 1021.44 1021.48 1021.75 1021.65 1021.67 1021.68 1021.69
1014.36 1014.45 1015.45 1016.31 1017.02 1017.52 1018.02 1018.15 1018.53 1018.93 1019.36 1019.65 1019.96 1020.62 1020.87 1020.69 1020.89 1020.85 1021.05 1021.32 1021.21 1021.38 1021.57 1021.45 1021.45 1021.54 1021.59
1013.30 1014.09 1014.76 1015.58 1016.40 1016.88 1017.61 1017.93 1018.33 1018.63 1018.78 1019.30 1019.72 1019.69 1020.16 1019.95 1020.45 1020.78 1020.79 1020.93 1021.04 1021.24 1021.30 1021.16 1021.09 1021.23 1021.36
Wind_Speed
1 2 4 6 6 5 5 4 4 2 2 2 2 4 1 5 8 10 13 16 19 21 23 25 26 20 17
3 3 3 5 7 6 4 3 2 2 4 2 2 3 1 3 7 10 14 16 18 20 23 26 23 16 9
4 2 1 2 2 2 2 2 3 3 4 4 5 5 2 4 6 8 12 15 17 19 22 24 20 14 7
2 3 2 3 1 3 3 3 2 1 1 4 5 4 3 2 4 7 10 13 15 17 20 21 15 15 15
2 2 3 3 7 4 3 2 2 2 2 3 2 3 2 1 3 6 9 12 14 16 18 18 8 12 17
4 4 3 4 4 4 4 4 4 3 3 3 1 2 2 1 3 6 8 10 12 15 17 17 9 10 11
6 4 5 7 6 5 4 3 3 3 3 3 2 2 1 1 4 6 8 9 10 13 15 17 6 9 13
6 5 3 6 6 6 6 5 3 2 2 2 2 2 1 2 4 6 8 7 9 10 13 14 11 11 13
6 8 8 14 10 7 5 6 3 3 3 2 2 2 0 1 2 6 5 9 8 10 12 12 12 15 14
5 6 7 9 14 5 7 7 3 3 4 4 3 2 2 1 1 2 2 5 6 10 10 11 10 5 6
4 4 3 4 4 4 4 3 3 1 4 3 3 3 1 2 1 1 1 2 3 4 9 11 11 7 4
5 5 4 3 2 3 4 4 4 3 5 3 3 2 2 1 1 1 1 2 1 1 2 3 9 9 10
6 6 4 3 4 4 5 6 5 3 3 2 2 3 2 1 2 1 2 2 0 1 0 2 2 2 3
6 4 4 6 5 4 3 4 3 2 3 2 4 3 3 2 1 2 2 2 1 2 2 1 1 1 2
5 7 7 6 5 4 3 3 3 4 4 3 3 2 1 4 3 3 3 2 2 3 2 2 2 3 2
6 8 7 7 6 5 3 3 4 4 4 4 5 3 1 3 6 3 3 3 2 3 2 2 2 2 2
8 8 7 7 9 6 5 4 4 4 4 6 5 3 4 4 3 10 3 3 3 3 3 2 2 2 2
Wind_Direction
196 141 164 164 185 171 159 178 196 179 187 235 302 200 275 328 333 330 331 331 326 330 328 328 319 306 294
182 155 166 184 187 175 180 184 210 219 235 232 199 174 199 326 331 331 334 332 333 334 336 337 338 318 296
164 124 126 153 141 137 179 211 244 237 241 237 217 214 229 318 315 339 338 335 335 340 345 342 339 344 329
128 127 138 115 109 164 187 210 218 195 215 234 221 226 253 270 320 340 342 336 341 347 349 341 334 25 41
134 146 143 140 200 167 185 156 190 218 212 221 209 186 190 245 314 342 348 343 347 352 349 345 9 14 60
153 167 167 185 174 161 140 168 209 198 198 165 187 188 191 196 346 339 347 353 358 357 355 359 48 44 45
145 167 172 189 147 154 173 166 183 160 188 164 183 180 179 111 358 351 1 0 9 7 2 12 54 70 70
143 164 169 160 186 159 160 137 103 161 204 192 144 182 197 112 16 7 358 12 12 16 11 23 35 92 87
111 141 175 163 152 132 150 155 169 187 195 183 168 161 101 56 24 16 22 34 27 26 23 25 31 74 75
121 136 157 163 166 180 158 168 149 159 185 177 166 183 155 118 67 34 32 36 30 29 37 38 39 56 73
169 147 168 166 156 163 161 146 139 114 176 139 161 159 87 130 122 83 46 30 33 26 30 52 59 65 81
175 163 176 196 169 136 123 109 76 114 148 139 131 162 125 140 173 117 122 98 47 36 14 44 57 82 80
184 169 172 145 135 115 101 94 81 76 85 79 110 138 120 169 139 131 148 151 120 171 64 53 73 38 98
168 125 122 154 171 169 152 153 154 144 58 81 122 148 143 169 165 168 166 172 152 189 160 121 134 110 104
190 162 166 170 181 182 134 149 169 163 167 163 113 115 141 149 167 201 184 194 179 133 162 180 200 204 182
177 164 164 174 170 163 154 184 174 173 164 160 150 145 161 221 230 169 168 184 152 166 182 173 158 137 177
175 175 170 168 174 165 177 173 179 176 163 160 171 165 166 181 131 212 196 169 159 173 185 180 131 118 95